Погода в Девнинском

Украина / Запорожская область     46°39′16″N   35°33′48″E
темп.,
°C
ветер,
м/с
пор.,
м/с
влажн.,
%
обл.,
%
осадки,
мм/ч
давл.,
гПа
погр.,
м
22 апреля, чт
чт2200:00+8юз37865 0.0 1020139
03:00+7юз22915 0.0 102031
06:00+7юз22935 0.0 102133
09:00+12юз34715 0.0 1022530
12:00+15ююз44536 0.0 10221404
15:00+15ю545437 0.0 10221063
18:00+13ю5767100 0.0 1022421
21:00+10ююз36803 0.0 1023124
23 апреля, пт
пт2300:00+9юз22811 0.0 102218
03:00+8юз22860 0.0 102214
06:00+7ююз23855 0.0 102228
09:00+13ю4658100 0.0 1022552
12:00+15ю6654100 0.0 1021714
15:00+16ю674853 0.0 10191011
18:00+13ю61065100 0.0 1018445
21:00+11ююз61076100 0.1 1018336
24 апреля, сб
сб2400:00+11зюз3777100 0.2 1017180
03:00+9зюз368997 0.2 1016173
06:00+8ссз5988100 1.1 1017480
09:00+10сз57621 1.1 1019965
12:00+14зсз69415 0.0 10191997
15:00+15з8103390 0.0 10192713
18:00+12сз9105123 0.0 10201664
21:00+7зсз38535 0.0 1022184
25 апреля, вс
вс2500:00+5сз345775 0.0 102380
03:00+5зсз335791 0.0 102353
06:00+3сз2265100 0.0 102333
09:00+9сз234697 0.0 1023787
12:00+12ссз3333100 0.0 10221778
15:00+13ссз2331100 0.0 10211925
18:00+11ююз4445100 0.0 1020701
21:00+7ююз3358100 0.0 102172
26 апреля, пн
пн2600:00+6зюз3362100 0.0 102035
03:00+6з3360100 0.0 101938
06:00+5зсз346946 0.0 101957
09:00+11зюз354664 0.0 1019598
12:00+14з685097 0.1 10181923
15:00+11сз565828 0.2 10181275
18:00+13зсз664012 0.0 10181918
21:00+8з22525 0.0 101920